[[{"header":{"parameterUnit":"m.s-1","parameterCategory":1,"la1":30.2991,"la2":30.254,"lo1":-89.0895,"lo2":-89.0444,"dy":0.0017,"dx":0.0017,"nx":28,"ny":28,"refTime":"2025-05-26T21:00:00:Z","depth":0,"parameterNumber":2,"parameterNumberName":"U-component_of_WINDS"},"data":[0,0,0,0,0,0,0,0,0,0,0,0,0,0,0,0,0,0,0,0,0,0,0,0,0,0,0,0,0,0,0,0,0,0,0,0,0,0,0,0,0,0,0,0,0,0,0,0,0,0,0,0,0,0,0,0,0,0,0.9836,0.9837,0,0.9856,0.9857,0.9857,0.9847,0.9847,0.9846,0.9846,0.9865,0.9866,0.9867,0,0,0,0,0,0,0,0,0,0,0,0,0,0.9787,0.9788,0.9836,0.9837,0.9837,0.9856,0.9857,0.9857,0.9847,0.9847,0.9846,0.9845,0.9865,0.9866,0.9867,0,0,0,0,0,0,0,0,0,0,0,0,0,0.9808,0.9789,0.9836,0.9834,0.9834,0.9856,0.9857,0.9857,0.9847,0.9846,0.9846,0.9845,0.9864,0.9866,0.9867,0.9892,0,0,0.9872,0.9872,0,0,0,0,0,0,0,0,0.9807,0.981,0.9834,0.9835,0.9835,0.9848,0.9846,0.9869,0.9847,0.9842,0.9846,0.9845,0.986,0.9862,0.9867,0.9893,0.9894,0.9872,0.9873,0.9873,0.9874,0,0,0,0,0,0,0,0.9806,0.9809,0.9844,0.9835,0.9835,0.9832,0.9834,0.9851,0.9855,0.9843,0.9842,0.9845,0.986,0.9866,0.9868,0.9894,0.9872,0.9873,0.9874,0.9875,0.9938,0.9939,0,0,0,0,0,0,0.9804,0.9808,0.9844,0.9845,0.9819,0.9833,0.9836,0.9845,0.9855,0.9856,0.9845,0.9844,0.9864,0.9866,0.9868,0.9896,0.9873,0.9875,0.9876,0.9938,0.9939,0.9939,0,0,0,0,0,0,0.9803,0.9808,0.9843,0.9826,0.983,0.9835,0.9845,0.9846,0.9851,0.9857,0.9858,0.9851,0.9863,0.9866,0.9886,0.9897,0.9875,0.9877,0.9937,0.9938,0.9939,0.9953,0,0,0,0,0,0,0.9802,0.9807,0.9818,0.9827,0.9831,0.986,0.9846,0.9847,0.9854,0.9853,0.9862,0.9863,0.9863,0.9883,0.9887,0.9898,0.9878,0.9936,0.9937,0.9939,0.9952,0.9955,0.9957,0,0,0,0,0,0.98,0.9821,0.9818,0.9822,0.9844,0.9861,0.9864,0.9864,0.9855,0.9865,0.9868,0.9863,0.9895,0.9886,0.989,0.9901,0.9935,0.9937,0.9938,0.995,0.9954,0.9957,0,0,0,0,0,0,0.9813,0.9822,0.9819,0.9843,0.9852,0.986,0.9872,0.9868,0.9878,0.9877,0.9876,0.9878,0.9898,0.9902,0.9891,0.9925,0.9914,0.9916,0.9921,0.9925,0.9928,0.9926,0.9879,0,0,0,0,0,0.9819,0.9832,0.9839,0.986,0.9864,0.9867,0.9875,0.9874,0.9882,0.9885,0.989,0.9898,0.991,0.9918,0.9929,0.9953,0.9953,0.9963,0.9965,0.9968,0.997,0.998,0.9984,0.9945,0.9945,0.9945,0,0,0.9831,0.9837,0.9846,0.9863,0.9869,0.9882,0.987,0.9885,0.9895,0.9888,0.9906,0.991,0.9918,0.9939,0.9949,0.9943,0.9981,0.997,0.9972,0.9972,0.9983,0.9986,0.999,0.9946,0.9946,0.9946,0,0,0.9858,0.9865,0.9882,0.9889,0.9898,0.99,0.9904,0.9912,0.9914,0.9933,0.9927,0.9938,0.9959,0.9965,0.9971,0.9999,0.9994,1.0003,1.0017,1.0028,1.0031,1.0034,1.0042,1.0045,1.0005,1.0005,1.0005,0,0.9871,0.9892,0.9892,0.9906,0.9913,0.9908,0.9924,0.993,0.9943,0.9947,0.9941,0.9966,0.9972,0.9993,1.0,1.0005,1.0009,1.0002,1.0031,1.0033,1.0036,1.0044,1.0047,1.0006,1.0006,1.0006,1.0006,0,0.9906,0.992,0.9933,0.9945,0.9953,0.9969,0.997,0.9979,0.9977,0.9979,0.9996,1.0003,1.0015,1.002,1.0018,1.0041,1.0037,1.0031,1.0019,1.004,1.0048,1.0051,1.0008,1.0007,1.0007,1.0007,0,0,0.9943,0.9954,0.9958,0.9963,0.9972,0.9983,0.9998,1.0009,1.0015,1.0024,1.0036,1.0053,1.0047,1.0053,1.0052,1.0062,1.0082,1.0054,1.0055,1.0058,1.0105,1.0108,1.0112,1.0079,1.008,1.008,1.0104,0,0.997,0.9996,0.9996,1.0019,1.0031,1.0025,1.0038,1.0045,1.0047,1.0057,1.0059,1.007,1.0062,1.0066,1.0075,1.0078,1.0091,1.0076,1.0088,1.0089,1.0085,1.0116,1.0121,1.0142,1.0107,1.0107,1.0108,0,1.0005,1.0014,1.0039,1.0045,1.005,1.0062,1.0071,1.0081,1.0088,1.0089,1.0096,1.0093,1.0107,1.0096,1.0114,1.0104,1.0109,1.0111,1.0111,1.0111,1.0099,1.0116,1.015,1.0152,1.0113,1.0112,1.0112,0,1.0027,1.0046,1.0063,1.0067,1.0075,1.0083,1.0087,1.0093,1.0099,1.0108,1.0112,1.0122,1.0127,1.0134,1.0134,1.0126,1.0152,1.0141,1.0152,1.0152,1.0157,1.0156,1.019,1.0162,1.0162,1.0162,1.0162,0,1.0057,1.0072,1.0072,1.0083,1.0099,1.0098,1.0113,1.0116,1.0122,1.0132,1.0128,1.0137,1.0137,1.0146,1.0146,1.016,1.0163,1.0163,1.0162,1.0162,1.0162,1.0165,1.0163,1.0163,1.0163,1.0163,1.0162,0,1.0083,1.0085,1.0102,1.0108,1.011,1.0121,1.0126,1.0135,1.0137,1.0149,1.0152,1.0154,1.0165,1.0165,1.0178,1.0178,1.0194,1.0193,1.0192,1.0191,1.0201,1.02,1.0237,1.0241,1.0212,1.0212,1.0213,0,1.0102,1.0113,1.012,1.0126,1.013,1.014,1.0146,1.0146,1.0152,1.016,1.0168,1.0178,1.0186,1.0203,1.0206,1.0215,1.0212,1.0225,1.0214,1.0213,1.0211,1.021,1.021,1.0227,1.0227,1.0227,1.0228,0,1.0133,1.0133,1.0142,1.0151,1.0158,1.0166,1.0172,1.0178,1.0177,1.0185,1.0195,1.0202,1.0214,1.0223,1.0232,1.0235,1.0231,1.0231,1.0234,1.0233,1.0232,1.0231,1.0196,1.023,1.023,1.023,1.0229,1.0229,1.0155,1.0164,1.017,1.0179,1.0184,1.019,1.0199,1.0201,1.021,1.0219,1.0218,1.023,1.0235,1.0246,1.025,1.0258,1.0254,1.0258,1.0259,1.026,1.026,1.0231,1.026,1.026,1.026,1.026,1.026,0,1.0184,1.0188,1.0197,1.0206,1.0213,1.0209,1.0216,1.0222,1.0232,1.0238,1.0245,1.0257,1.0266,1.0269,1.0277,1.0283,1.0282,1.0285,1.0284,1.0285,1.0264,1.026,1.0287,1.0287,1.0287,1.0287,1.0287,1.0287,1.0201,1.0215,1.0215,1.0232,1.0235,1.0246,1.0249,1.0255,1.0259,1.0272,1.0279,1.0281,1.0285,1.0294,1.0301,1.0302,1.0305,1.0309,1.0309,1.0289,1.0286,1.0284,1.028,1.031,1.031,1.0328,1.0328,1.0329]},{"header":{"parameterUnit":"m.s-1","parameterCategory":1,"la1":30.2991,"la2":30.254,"lo1":-89.0895,"lo2":-89.0444,"dy":0.0017,"dx":0.0017,"nx":28,"ny":28,"refTime":"2025-05-26T21:00:00:Z","depth":0,"parameterNumber":3,"parameterNumberName":"V-component_of_WINDS"},"data":[0,0,0,0,0,0,0,0,0,0,0,0,0,0,0,0,0,0,0,0,0,0,0,0,0,0,0,0,0,0,0,0,0,0,0,0,0,0,0,0,0,0,0,0,0,0,0,0,0,0,0,0,0,0,0,0,0,0,5.1684,5.1685,0,5.1765,5.1766,5.1767,5.1723,5.1721,5.1719,5.1717,5.1793,5.1797,5.1801,0,0,0,0,0,0,0,0,0,0,0,0,0,5.1484,5.1488,5.1684,5.1685,5.1686,5.1765,5.1766,5.1767,5.1724,5.1721,5.1718,5.1716,5.1791,5.1796,5.1801,0,0,0,0,0,0,0,0,0,0,0,0,0,5.1568,5.1489,5.1684,5.1674,5.1674,5.1764,5.1766,5.1767,5.1724,5.1721,5.1718,5.1715,5.179,5.1796,5.1802,5.1904,0,0,5.182,5.1823,0,0,0,0,0,0,0,0,5.1564,5.1576,5.1675,5.1675,5.1675,5.1731,5.1723,5.1813,5.1725,5.1705,5.1717,5.1713,5.1774,5.1781,5.1804,5.1908,5.1911,5.1821,5.1825,5.1827,5.1829,0,0,0,0,0,0,0,5.1558,5.1572,5.1716,5.1676,5.1676,5.1663,5.1671,5.174,5.1757,5.1706,5.1703,5.1714,5.1774,5.1798,5.1805,5.1912,5.1821,5.1826,5.183,5.1832,5.2101,5.2105,0,0,0,0,0,0,5.1554,5.1567,5.1713,5.1718,5.161,5.1669,5.1679,5.1716,5.1756,5.1759,5.1717,5.1712,5.1789,5.1798,5.1807,5.1928,5.1827,5.1833,5.1836,5.2098,5.2102,5.2106,0,0,0,0,0,0,5.155,5.1567,5.171,5.1642,5.1659,5.1676,5.1718,5.1719,5.1743,5.1764,5.1766,5.1739,5.1787,5.1799,5.188,5.193,5.1836,5.1841,5.2094,5.2099,5.2104,5.2172,0,0,0,0,0,0,5.1544,5.1566,5.1607,5.1643,5.1663,5.1784,5.1722,5.1723,5.1755,5.1749,5.1785,5.1788,5.1785,5.1871,5.1886,5.1937,5.1846,5.2089,5.2096,5.2102,5.2165,5.2179,5.219,0,0,0,0,0,5.1537,5.1622,5.161,5.1627,5.1716,5.1787,5.1798,5.1796,5.1759,5.1799,5.1812,5.1786,5.1923,5.188,5.1897,5.195,5.2086,5.2094,5.2102,5.2159,5.2176,5.219,0,0,0,0,0,0,5.159,5.1627,5.1613,5.1714,5.1748,5.178,5.1831,5.1814,5.1857,5.185,5.1842,5.1851,5.1935,5.195,5.1903,5.2049,5.1998,5.201,5.2036,5.2052,5.2065,5.2059,5.1851,0,0,0,0,0,5.1614,5.1671,5.1699,5.1785,5.1803,5.1814,5.1845,5.184,5.1874,5.1888,5.1906,5.1939,5.1988,5.2021,5.2068,5.2167,5.2172,5.2211,5.2224,5.2234,5.2244,5.2294,5.2311,5.2132,5.2132,5.2131,0,0,5.1662,5.169,5.1726,5.1796,5.1822,5.1879,5.1826,5.1889,5.1931,5.1897,5.1975,5.1989,5.2024,5.2115,5.2155,5.213,5.2295,5.2244,5.2252,5.2256,5.2304,5.2321,5.2336,5.2137,5.2136,5.2135,0,0,5.178,5.1808,5.1881,5.1908,5.1949,5.1955,5.1972,5.2007,5.2016,5.2094,5.2069,5.2117,5.2204,5.2229,5.2253,5.2378,5.2356,5.2393,5.2459,5.2508,5.2522,5.2535,5.2577,5.2593,5.2403,5.2403,5.2403,0,5.1835,5.1923,5.192,5.1985,5.2015,5.1988,5.206,5.2086,5.2139,5.2159,5.213,5.2237,5.2259,5.2353,5.2384,5.2405,5.2422,5.2389,5.2521,5.2533,5.2545,5.2585,5.2601,5.2408,5.2407,5.2407,5.2406,0,5.1986,5.2047,5.2101,5.2154,5.219,5.2258,5.2263,5.23,5.2291,5.2299,5.2378,5.2403,5.2454,5.2476,5.2467,5.2568,5.2551,5.2522,5.247,5.2566,5.2604,5.2619,5.2414,5.2412,5.2411,5.241,0,0,5.2141,5.2191,5.2211,5.2233,5.2275,5.232,5.2386,5.2437,5.2467,5.2503,5.2556,5.2629,5.2602,5.2629,5.2623,5.2667,5.2761,5.2632,5.2633,5.2654,5.2871,5.2891,5.2909,5.2747,5.275,5.2752,5.2867,0,5.226,5.2377,5.2375,5.2482,5.2536,5.2511,5.2567,5.2597,5.2606,5.2651,5.266,5.2711,5.2673,5.2689,5.2731,5.2741,5.2804,5.2733,5.2793,5.2795,5.2784,5.2929,5.2952,5.3059,5.2882,5.2884,5.2886,0,5.2415,5.2458,5.2571,5.2602,5.2625,5.2676,5.2721,5.2766,5.2798,5.2801,5.2831,5.2818,5.288,5.2828,5.2913,5.2864,5.2888,5.2897,5.29,5.2905,5.2846,5.2936,5.3094,5.3109,5.291,5.2908,5.2906,0,5.2514,5.26,5.2678,5.2698,5.2737,5.2773,5.2791,5.282,5.285,5.2889,5.2907,5.2952,5.2977,5.301,5.3008,5.2971,5.3093,5.3041,5.3095,5.3096,5.3122,5.312,5.3284,5.314,5.314,5.314,5.3139,0,5.2646,5.2716,5.2722,5.277,5.2846,5.2842,5.2916,5.293,5.2956,5.3003,5.2983,5.3028,5.3023,5.3067,5.3066,5.3135,5.3146,5.3148,5.3147,5.315,5.3149,5.3164,5.3156,5.3144,5.3143,5.3142,5.3141,0,5.2769,5.2777,5.286,5.289,5.2899,5.2953,5.2978,5.3021,5.3028,5.3089,5.3103,5.3113,5.3163,5.3165,5.3223,5.3221,5.3305,5.3296,5.3295,5.3292,5.3346,5.3341,5.3525,5.3548,5.339,5.3392,5.3393,0,5.2853,5.2906,5.2942,5.2973,5.2993,5.3044,5.3075,5.3072,5.3104,5.3143,5.3181,5.3231,5.327,5.3351,5.3362,5.3405,5.3396,5.3457,5.3402,5.3403,5.3395,5.3391,5.3395,5.3468,5.347,5.3471,5.3472,0,5.3,5.3,5.3046,5.3093,5.3131,5.3167,5.3201,5.3227,5.3227,5.3264,5.3316,5.3347,5.3406,5.3454,5.3495,5.351,5.3491,5.349,5.3504,5.3507,5.3503,5.3504,5.3323,5.3485,5.3484,5.3483,5.3482,5.3482,5.3104,5.3149,5.3181,5.3232,5.3257,5.3289,5.3331,5.3343,5.3387,5.3436,5.3431,5.3489,5.3516,5.357,5.3589,5.3632,5.361,5.3632,5.3637,5.3642,5.3647,5.3498,5.364,5.3639,5.3639,5.3638,5.3638,0,5.3248,5.3267,5.3315,5.3362,5.3402,5.3382,5.3417,5.3451,5.3502,5.3531,5.357,5.3628,5.3674,5.3688,5.3732,5.3764,5.3755,5.3775,5.3772,5.3775,5.3665,5.3647,5.3781,5.3781,5.3781,5.3781,5.3781,5.3781,5.3328,5.3402,5.3406,5.3491,5.3509,5.3567,5.3588,5.3616,5.3638,5.3705,5.3744,5.3754,5.3775,5.382,5.386,5.3863,5.3879,5.3902,5.3901,5.3797,5.3783,5.3769,5.3753,5.3906,5.3906,5.4007,5.4008,5.4009]}]]